EHI
4 5 6 8 9 9 8 7 7 8 8 6 4 5 6 5 5 10 14 17 17 14 11 8 7 7 6 3 1 0 1 0 0 0 0 0 0 0 0 0 0 0 0
5 5 6 6 7 7 8 7 7 8 9 7 5 6 6 6 7 8 12 15 16 15 12 9 8 8 8 5 2 2 2 2 1 1 0 0 0 0 0 0 0 0 0
6 6 6 5 4 5 7 7 7 8 7 6 6 6 6 7 9 10 13 16 16 14 13 12 10 9 9 8 5 4 5 5 3 1 0 0 0 0 0 0 0 0 0
7 7 7 5 5 6 6 6 6 7 6 5 6 7 6 7 10 12 15 18 17 15 15 15 13 11 10 9 8 7 8 7 4 2 0 0 0 0 0 0 0 0 0
9 9 9 8 7 7 7 5 6 7 6 5 6 6 7 8 10 10 12 16 18 18 17 16 15 13 12 11 10 9 9 9 6 2 0 0 0 0 0 0 0 0 0
11 10 11 11 11 10 8 7 8 8 7 5 4 4 5 8 9 8 8 12 17 19 18 18 17 15 14 13 12 11 10 10 8 5 2 2 2 1 0 0 0 0 0
13 13 14 15 14 12 11 10 10 9 7 5 3 1 2 5 7 8 8 10 12 14 16 18 18 17 14 13 13 13 12 11 10 7 5 5 4 2 1 1 0 0 0
17 16 19 21 18 15 14 15 13 10 7 6 4 2 1 2 3 6 8 10 10 9 10 13 18 19 17 16 15 13 13 12 11 11 8 5 4 3 3 2 1 1 0
22 22 24 25 22 18 16 17 17 14 9 6 5 3 2 2 2 3 6 9 9 8 6 8 15 21 21 19 16 13 12 11 11 12 10 6 4 3 3 3 3 2 1
28 28 28 27 25 19 16 16 17 15 10 6 5 5 5 4 3 2 4 6 8 9 8 6 11 19 22 21 18 14 11 9 7 8 8 6 5 4 3 3 3 3 3
32 32 31 30 27 21 16 14 13 12 9 7 6 7 6 6 4 2 2 3 6 10 11 8 10 15 18 18 17 15 12 7 4 3 3 3 4 3 2 2 2 2 2
33 35 35 33 31 25 20 15 12 11 10 9 9 8 6 6 5 3 2 1 3 6 9 11 13 16 15 14 14 13 11 7 2 1 0 1 1 1 1 0 1 1 1
35 36 36 35 33 29 24 20 17 14 14 14 13 11 9 7 7 5 2 0 0 2 5 9 13 15 13 11 11 11 10 6 1 0 0 0 0 0 0 0 0 0 0
37 37 37 35 32 26 23 22 21 19 19 19 16 14 12 10 8 6 3 1 1 1 2 4 8 11 10 10 10 11 10 5 1 0 0 0 0 0 0 0 0 0 0
38 40 40 35 30 24 20 20 20 21 23 22 19 16 15 12 9 7 7 6 4 3 2 2 4 6 7 7 8 10 11 6 1 0 0 0 0 0 0 0 0 0 0
41 42 41 36 31 26 21 18 17 18 21 22 20 17 16 14 12 11 11 11 8 4 3 3 3 5 5 5 5 8 9 6 2 0 0 0 0 0 0 0 0 0 0
44 43 41 37 31 27 23 19 16 14 15 17 16 14 14 15 16 13 11 10 9 5 4 3 4 6 8 7 6 6 6 4 2 1 0 0 0 0 0 0 0 0 0
45 44 42 37 30 25 21 18 15 13 12 12 11 9 11 15 16 14 10 8 7 7 5 4 4 7 9 9 8 7 4 2 1 1 0 0 0 0 0 0 0 0 0
44 44 42 36 29 22 17 14 12 11 10 10 9 8 10 15 16 13 11 8 6 6 7 6 5 6 8 8 8 7 4 2 1 0 0 0 0 0 0 0 0 0 0
43 42 39 32 24 17 11 9 10 11 11 10 9 9 10 13 14 11 9 7 5 5 7 7 6 5 6 7 8 7 4 3 1 0 0 0 0 0 0 0 0 0 0
39 38 34 25 15 9 7 7 9 10 10 10 10 10 9 9 9 7 5 4 3 3 5 6 5 3 3 6 9 7 4 2 1 1 1 0 0 0 0 0 0 0 0
33 34 29 20 11 7 5 5 5 7 8 9 10 11 9 8 6 3 2 1 1 1 2 3 3 2 2 5 7 6 3 2 1 1 2 1 0 0 0 0 0 0 0
32 31 28 22 14 9 5 2 3 4 6 8 10 10 10 8 6 4 2 1 0 0 1 2 3 3 3 3 5 5 4 2 1 1 2 1 0 0 0 0 0 0 0
32 31 30 24 17 11 5 1 1 4 7 8 9 9 9 8 7 5 3 2 1 0 0 1 2 2 2 2 3 4 3 1 0 0 1 1 0 0 0 0 0 0 0
32 31 29 23 16 10 5 1 1 4 7 8 7 7 7 6 5 4 3 2 2 1 1 1 1 1 1 1 1 1 1 0 0 1 1 1 0 0 0 0 0 0 0
32 30 26 20 15 11 5 1 2 6 7 7 6 5 5 5 4 2 2 3 3 2 2 1 0 0 0 0 0 0 0 0 0 1 2 2 1 0 0 1 1 1 0
Wind_Speed
2 2 1 1 1 1 2 1 1 1 0 0 0 1 1 2 3 4 5 11 11 10 10 10 10 10 10 9 9 8 8 7 7 7 6 7 7 7 7 7 7 7 6
2 2 1 1 0 1 1 1 1 1 0 0 1 1 0 2 3 4 6 7 11 11 10 10 10 10 10 10 9 8 8 8 7 7 7 7 7 7 7 7 7 6 6
2 1 0 1 1 0 1 0 1 0 1 0 1 1 1 1 2 3 5 5 6 10 11 11 11 11 11 11 10 9 9 8 8 8 8 7 7 7 7 7 7 6 6
1 1 1 1 1 1 1 1 1 0 0 0 1 1 1 2 3 4 5 5 5 6 9 12 12 11 11 11 11 10 10 9 8 8 8 8 8 7 7 7 7 7 7
2 1 1 1 1 1 1 1 1 0 1 1 2 2 2 2 3 4 5 6 5 5 6 9 12 11 11 11 12 11 11 10 9 9 9 9 8 8 7 7 7 7 7
2 1 2 2 1 0 0 0 0 1 1 2 3 2 2 2 3 3 4 5 5 6 6 7 7 8 11 10 11 12 12 11 11 10 10 10 9 8 8 8 7 7 7
2 2 1 1 1 1 1 1 0 2 2 1 1 1 2 3 3 2 2 2 4 5 5 6 5 5 6 10 10 11 12 12 11 11 10 10 10 10 9 9 8 8 8
2 3 2 2 1 1 1 1 1 1 2 1 1 1 1 1 1 2 2 3 3 3 4 6 4 4 4 4 6 11 11 11 11 11 10 10 10 10 10 11 10 9 9
3 2 2 2 2 2 2 2 2 2 2 2 1 1 1 1 1 1 2 2 2 2 3 3 5 5 5 4 5 9 11 10 11 11 11 10 9 9 9 10 11 10 10
3 3 2 2 2 2 1 2 2 1 2 2 1 2 2 1 1 1 1 1 1 1 2 2 3 3 4 3 4 6 9 9 9 10 10 10 9 9 9 10 10 11 11
2 2 2 2 2 2 2 1 1 1 1 2 2 1 1 1 2 2 1 1 0 0 0 1 1 2 3 3 4 6 9 9 9 8 8 8 8 8 9 10 11 10 11
2 2 2 2 2 2 2 2 1 1 1 2 1 1 1 1 1 1 1 1 1 1 1 1 1 2 2 2 4 7 9 10 9 8 8 7 7 7 8 8 9 10 10
1 1 2 2 2 2 2 2 2 1 1 2 1 1 1 1 1 1 1 1 1 1 1 1 1 1 2 2 2 6 7 9 9 8 8 7 7 6 6 7 7 8 8
1 2 1 1 2 2 2 2 1 2 2 1 2 1 1 2 1 1 1 1 1 1 1 1 0 1 1 2 2 6 4 7 8 8 8 7 7 6 5 5 5 6 6
1 2 2 1 1 1 1 1 1 1 1 1 1 1 1 1 1 1 1 0 1 1 1 1 1 1 0 1 3 2 3 5 6 6 6 7 6 6 5 4 4 4 4
0 1 1 1 2 1 1 1 1 1 0 1 0 1 1 1 1 1 1 1 0 1 1 1 1 1 1 0 3 2 2 5 5 6 6 6 5 5 5 4 4 3 3
0 1 1 1 1 1 1 1 1 1 0 0 1 1 1 2 2 2 1 1 1 1 1 1 0 1 1 1 0 1 2 2 2 4 5 6 5 5 4 4 3 3 3
1 1 1 1 1 2 1 1 1 1 1 1 2 2 3 2 2 2 2 2 1 0 1 1 1 1 1 1 1 1 1 2 2 4 6 6 5 5 4 4 4 4 3
1 1 1 1 1 2 2 1 1 1 2 2 2 3 3 3 3 2 2 2 1 1 0 0 1 1 1 1 1 1 1 0 1 3 6 6 6 6 5 5 5 5 4
2 1 2 2 2 2 2 1 1 2 2 2 3 3 3 3 3 3 2 2 2 1 1 0 0 1 2 2 1 1 1 0 0 1 2 5 6 7 6 5 5 5 5
3 2 2 2 2 2 3 2 1 2 2 2 3 3 4 5 6 4 3 3 3 2 1 1 1 2 2 2 2 1 1 1 1 1 1 2 3 3 3 4 4 5 5
3 3 3 3 3 4 6 6 4 3 3 3 3 3 3 4 6 6 7 7 5 3 2 2 2 2 2 2 3 2 1 1 0 1 1 1 2 2 2 2 5 6 6
3 3 3 4 4 5 6 6 6 3 3 3 3 3 3 5 5 4 4 4 5 6 4 2 2 2 2 3 3 3 2 1 0 0 1 1 1 1 1 3 7 6 6
3 3 3 3 4 5 6 5 5 2 3 4 4 4 4 4 5 5 4 4 4 5 4 2 2 2 2 3 3 2 2 1 1 2 2 1 1 1 1 2 5 7 6
3 3 3 4 4 5 6 5 3 1 2 4 4 5 4 4 6 5 3 4 4 3 5 5 4 3 3 4 3 3 3 2 1 1 2 1 1 1 1 1 1 4 5
3 4 4 4 4 4 5 5 4 1 2 2 3 4 6 5 5 4 2 2 2 2 2 3 3 3 2 3 4 3 3 2 2 1 3 2 1 1 1 1 1 1 1
Wind_Direction
111 109 106 91 131 145 172 196 226 193 211 227 202 145 125 125 130 131 140 160 162 166 168 171 172 176 177 177 180 181 180 176 174 172 171 169 165 165 168 167 168 173 174
97 96 112 109 108 163 140 155 176 203 274 77 22 17 129 149 145 147 146 164 171 173 176 179 182 182 182 183 185 184 180 179 180 180 178 176 173 171 173 174 174 171 169
98 117 154 171 177 162 123 183 193 199 231 185 172 241 231 192 167 164 158 161 173 183 185 187 189 189 189 189 189 186 183 184 186 187 186 185 184 182 183 183 184 181 177
148 152 157 157 170 189 190 205 202 196 312 289 224 223 216 196 191 185 175 174 175 178 190 194 193 193 195 195 193 191 190 191 191 192 193 192 191 189 189 192 193 192 189
187 178 186 187 226 217 206 237 106 162 229 257 242 223 211 204 202 202 191 184 178 171 175 188 192 193 196 198 198 198 196 197 197 199 199 198 198 196 196 199 200 198 199
186 196 198 205 215 219 223 25 166 251 241 244 259 253 236 218 222 209 203 183 179 182 183 177 182 195 200 200 201 204 204 202 203 205 205 203 203 201 200 202 202 202 204
185 211 226 184 202 195 215 220 209 251 252 251 275 295 275 234 209 200 197 184 185 181 175 167 176 179 188 202 206 207 209 207 206 206 208 207 208 208 207 208 207 209 210
215 214 191 203 186 182 217 232 230 258 264 222 196 275 307 327 302 204 168 185 200 169 170 176 169 169 176 176 196 205 209 208 208 208 210 211 211 212 212 212 211 212 212
210 234 200 191 181 205 210 229 231 227 263 269 209 198 219 223 270 281 198 173 180 167 175 167 170 174 182 178 182 202 206 208 210 211 213 212 213 211 213 215 214 214 214
212 207 210 201 199 215 208 231 212 235 250 273 260 227 220 188 204 239 290 186 147 162 184 190 171 167 178 172 177 176 191 203 210 216 218 216 215 212 212 213 216 219 219
213 207 184 217 212 210 213 242 271 265 265 274 285 285 245 227 218 192 214 257 302 211 177 211 162 168 184 181 180 178 179 189 198 209 215 217 216 214 214 219 222 224 224
223 208 181 212 216 210 205 214 237 253 265 285 309 323 293 269 247 204 196 214 232 245 202 211 174 169 177 177 192 180 175 180 188 198 205 210 215 216 215 220 226 229 229
221 220 207 182 205 194 196 198 201 238 257 267 279 277 283 272 262 218 179 217 244 250 228 217 190 170 179 162 165 163 168 174 182 189 195 201 208 211 213 218 225 230 229
238 178 193 185 187 182 202 177 192 219 230 247 270 279 303 310 307 285 207 198 244 257 269 292 32 150 182 144 151 166 164 168 177 184 190 195 196 197 201 208 217 225 224
238 154 152 152 133 149 213 200 190 223 233 250 272 269 269 295 318 319 317 208 197 223 279 301 350 338 104 113 131 154 146 152 165 176 184 188 190 193 195 198 206 214 216
331 80 108 127 138 160 172 203 201 184 225 260 277 3 332 321 318 303 304 286 215 175 232 310 313 324 344 19 135 139 143 140 162 171 179 177 179 183 186 192 199 197 190
158 130 117 116 134 116 128 140 139 140 135 47 341 20 1 348 346 343 345 355 13 88 171 277 296 333 357 327 95 163 170 145 150 170 174 174 171 167 167 170 171 164 162
129 123 141 127 115 113 118 104 71 48 35 32 7 11 9 358 7 354 357 358 360 31 192 250 299 293 264 267 239 211 191 167 167 161 166 165 158 149 148 149 147 142 141
126 125 115 105 102 99 95 89 80 67 50 45 35 36 21 15 15 5 356 355 333 334 100 180 292 333 345 339 322 277 145 199 174 156 154 154 148 142 140 134 132 126 123
98 91 94 93 90 87 77 75 81 82 67 57 48 49 40 32 21 5 5 355 353 0 33 77 23 13 9 351 354 349 27 315 106 104 111 137 139 140 139 134 130 129 130
108 94 92 86 88 82 51 44 54 86 78 68 56 51 51 56 56 43 29 13 4 9 23 51 43 18 13 3 339 328 2 354 65 97 124 133 132 132 140 132 125 125 127
101 95 88 76 61 57 51 53 55 53 60 60 51 40 48 49 54 60 53 46 41 35 22 32 29 22 1 346 332 332 345 345 3 57 107 101 116 128 146 150 148 146 146
105 93 86 85 82 57 47 51 54 55 63 61 56 39 26 36 39 33 47 46 42 46 57 62 47 23 8 349 336 335 333 282 193 152 142 140 113 119 139 142 157 160 160
106 99 93 90 89 60 45 46 40 53 64 67 61 52 50 39 31 25 34 47 47 38 35 68 60 37 31 358 339 331 328 353 92 48 38 98 115 107 102 135 168 169 169
110 103 96 91 88 71 48 45 38 76 83 84 76 61 51 46 26 34 44 52 50 40 45 57 58 56 46 29 9 7 3 10 45 56 20 32 64 50 61 71 125 176 179
118 115 103 98 98 90 61 52 44 71 86 96 100 83 56 34 19 30 57 67 56 21 17 34 48 41 47 44 36 33 20 13 29 39 13 4 44 43 37 36 72 112 170